KVG728 ESSA-EFHK

Flight info

Callsign KVG728
Flight time 0h 45m
Altitude 25000
Route TOVRI N851 RIKUM DCT RIRIP Y364 LAKUT
Aircraft A21N/M-SDE2E3FGHIRWXY/LB1

Departure

Time 2026-04-25 20:12
Airport Stockholm-Arlanda Airport (ESSA)

Arrival

Time 2026-04-25 20:57
Airport Helsinki Vantaa Airport (EFHK)
Time Latitude Longitude Altitude Speed Heading
2026-04-25 19:37 59.64729 17.92599 116 ft 0 kts 34°
2026-04-25 19:54 59.64723 17.92592 112 ft 3 kts 34°
2026-04-25 19:54 59.64718 17.92585 112 ft 3 kts 34°
2026-04-25 19:55 59.64692 17.92550 112 ft 3 kts 34°
2026-04-25 19:55 59.64677 17.92529 112 ft 3 kts 34°
2026-04-25 19:55 59.64676 17.92528 112 ft 0 kts 34°
2026-04-25 20:02 59.64679 17.92523 111 ft 1 kts
2026-04-25 20:02 59.64696 17.92485 124 ft 7 kts 308°
2026-04-25 20:03 59.64718 17.92350 114 ft 13 kts 281°
2026-04-25 20:03 59.64745 17.92132 113 ft 16 kts 293°
2026-04-25 20:03 59.64814 17.92073 113 ft 11 kts
2026-04-25 20:03 59.64911 17.92105 116 ft 16 kts 12°
2026-04-25 20:04 59.65040 17.92150 115 ft 18 kts
2026-04-25 20:04 59.65182 17.92210 115 ft 23 kts 13°
2026-04-25 20:04 59.65363 17.92261 119 ft 29 kts
2026-04-25 20:04 59.65546 17.92339 118 ft 22 kts
2026-04-25 20:05 59.65667 17.92383 119 ft 15 kts 10°
2026-04-25 20:05 59.65712 17.92401 118 ft 2 kts 21°
2026-04-25 20:05 59.65717 17.92414 117 ft 2 kts 46°
2026-04-25 20:05 59.65721 17.92450 117 ft 5 kts 81°
2026-04-25 20:06 59.65713 17.92471 117 ft 2 kts 123°
2026-04-25 20:06 59.65676 17.92497 119 ft 9 kts 172°
2026-04-25 20:06 59.65613 17.92494 117 ft 16 kts 175°
2026-04-25 20:06 59.65532 17.92590 117 ft 10 kts 104°
2026-04-25 20:07 59.65546 17.92751 115 ft 13 kts 75°
2026-04-25 20:07 59.65558 17.92835 118 ft 4 kts 75°
2026-04-25 20:07 59.65571 17.92938 117 ft 11 kts 75°
2026-04-25 20:07 59.65594 17.93102 115 ft 13 kts 75°
2026-04-25 20:08 59.65610 17.93224 116 ft 15 kts 71°
2026-04-25 20:08 59.65623 17.93263 115 ft 1 kts 50°
2026-04-25 20:08 59.65638 17.93300 114 ft 10 kts 52°
2026-04-25 20:08 59.65709 17.93460 113 ft 7 kts 45°
2026-04-25 20:09 59.65737 17.93514 115 ft 10 kts 45°
2026-04-25 20:09 59.65793 17.93628 117 ft 13 kts 46°
2026-04-25 20:09 59.65860 17.93779 113 ft 6 kts 58°
2026-04-25 20:09 59.65866 17.93809 114 ft 0 kts 72°
2026-04-25 20:11 59.65866 17.93810 114 ft 1 kts 72°
2026-04-25 20:11 59.65881 17.93905 115 ft 16 kts 75°
2026-04-25 20:11 59.65961 17.94533 122 ft 90 kts 75°
2026-04-25 20:11 59.66180 17.96232 131 ft 161 kts 74°
2026-04-25 20:12 59.66502 17.98545 655 ft 180 kts 72°
2026-04-25 20:12 59.66825 18.00965 1484 ft 185 kts 70°
2026-04-25 20:12 59.67161 18.03515 2275 ft 198 kts 68°
2026-04-25 20:12 59.67410 18.05263 2872 ft 201 kts 66°
2026-04-25 20:13 59.67977 18.08864 4109 ft 212 kts 63°
2026-04-25 20:13 59.68477 18.11675 4896 ft 218 kts 60°
2026-04-25 20:13 59.69041 18.14598 5192 ft 237 kts 63°
2026-04-25 20:13 59.69526 18.17842 5553 ft 255 kts 71°
2026-04-25 20:14 59.69719 18.21430 6075 ft 268 kts 79°
2026-04-25 20:14 59.69831 18.25142 6606 ft 270 kts 78°
2026-04-25 20:14 59.70021 18.28838 7126 ft 270 kts 75°
2026-04-25 20:14 59.70308 18.32520 7655 ft 271 kts 72°
2026-04-25 20:15 59.70661 18.36201 8206 ft 273 kts 71°
2026-04-25 20:15 59.71044 18.39841 8736 ft 275 kts 70°
2026-04-25 20:15 59.71447 18.43559 9303 ft 277 kts 70°
2026-04-25 20:15 59.71853 18.47309 9844 ft 280 kts 70°
2026-04-25 20:16 59.72277 18.51192 10375 ft 296 kts 71°
2026-04-25 20:16 59.72723 18.55284 10908 ft 311 kts 71°
2026-04-25 20:16 59.73186 18.59579 11455 ft 325 kts 71°
2026-04-25 20:16 59.73662 18.64045 12006 ft 337 kts 72°
2026-04-25 20:17 59.74145 18.68636 12568 ft 343 kts 72°
2026-04-25 20:17 59.74659 18.73274 13131 ft 344 kts 68°
2026-04-25 20:17 59.75501 18.77688 13694 ft 341 kts 58°
2026-04-25 20:17 59.76690 18.81641 14215 ft 337 kts 49°
2026-04-25 20:18 59.78047 18.85469 14728 ft 340 kts 49°
2026-04-25 20:18 59.79405 18.89339 15259 ft 343 kts 50°
2026-04-25 20:18 59.80767 18.93249 15800 ft 346 kts 50°
2026-04-25 20:18 59.82137 18.97195 16349 ft 349 kts 50°
2026-04-25 20:19 59.83520 19.01190 16911 ft 352 kts 50°
2026-04-25 20:19 59.84850 19.05313 17466 ft 359 kts 60°
2026-04-25 20:19 59.85683 19.10072 18061 ft 369 kts 69°
2026-04-25 20:19 59.86380 19.14997 18562 ft 372 kts 70°
2026-04-25 20:20 59.87064 19.19988 19072 ft 376 kts 70°
2026-04-25 20:20 59.87747 19.24951 19582 ft 379 kts 70°
2026-04-25 20:20 59.88454 19.30027 20111 ft 382 kts 70°
2026-04-25 20:20 59.89171 19.35146 20653 ft 386 kts 70°
2026-04-25 20:21 59.89894 19.40310 21183 ft 389 kts 70°
2026-04-25 20:21 59.90623 19.45524 21754 ft 392 kts 70°
2026-04-25 20:21 59.91355 19.50784 22319 ft 395 kts 70°
2026-04-25 20:21 59.92088 19.56077 22900 ft 398 kts 70°
2026-04-25 20:22 59.92823 19.61408 23450 ft 400 kts 70°
2026-04-25 20:22 59.93307 19.64924 23761 ft 401 kts 70°
2026-04-25 20:22 59.94296 19.72143 24397 ft 403 kts 70°
2026-04-25 20:22 59.95029 19.77504 24660 ft 411 kts 70°
2026-04-25 20:23 59.95788 19.83061 24720 ft 418 kts 71°
2026-04-25 20:23 59.96546 19.88655 24724 ft 417 kts 71°
2026-04-25 20:23 59.97299 19.94239 24721 ft 416 kts 71°
2026-04-25 20:23 59.98050 19.99819 24721 ft 417 kts 71°
2026-04-25 20:24 59.98799 20.05411 24719 ft 417 kts 71°
2026-04-25 20:24 59.99547 20.11004 24719 ft 417 kts 71°
2026-04-25 20:24 60.00284 20.16529 24716 ft 417 kts 71°
2026-04-25 20:24 60.01027 20.22123 24716 ft 417 kts 71°
2026-04-25 20:25 60.01769 20.27729 24712 ft 417 kts 71°
2026-04-25 20:25 60.02509 20.33347 24714 ft 418 kts 71°
2026-04-25 20:25 60.03247 20.38966 24707 ft 418 kts 71°
2026-04-25 20:25 60.03981 20.44577 24702 ft 418 kts 72°
2026-04-25 20:26 60.04714 20.50202 24700 ft 418 kts 72°
2026-04-25 20:26 60.05445 20.55838 24691 ft 418 kts 72°
2026-04-25 20:26 60.06174 20.61473 24687 ft 418 kts 72°
2026-04-25 20:26 60.06901 20.67116 24688 ft 419 kts 72°
2026-04-25 20:27 60.07617 20.72688 24685 ft 419 kts 72°
2026-04-25 20:27 60.08339 20.78340 24682 ft 419 kts 72°
2026-04-25 20:27 60.09061 20.84004 24676 ft 420 kts 72°
2026-04-25 20:27 60.09781 20.89674 24673 ft 420 kts 72°
2026-04-25 20:28 60.10499 20.95350 24667 ft 420 kts 72°
2026-04-25 20:28 60.11214 21.01027 24671 ft 420 kts 72°
2026-04-25 20:28 60.11928 21.06709 24658 ft 421 kts 72°
2026-04-25 20:28 60.12638 21.12393 24660 ft 421 kts 72°
2026-04-25 20:29 60.13347 21.18092 24650 ft 421 kts 72°
2026-04-25 20:29 60.14054 21.23790 24649 ft 421 kts 72°
2026-04-25 20:29 60.14760 21.29498 24645 ft 421 kts 72°
2026-04-25 20:29 60.15462 21.35205 24642 ft 421 kts 72°
2026-04-25 20:30 60.16153 21.40833 24637 ft 421 kts 72°
2026-04-25 20:30 60.16851 21.46549 24639 ft 421 kts 73°
2026-04-25 20:30 60.17546 21.52257 24635 ft 422 kts 73°
2026-04-25 20:30 60.18239 21.57979 24634 ft 421 kts 73°
2026-04-25 20:31 60.18880 21.63729 24629 ft 423 kts 79°
2026-04-25 20:31 60.19063 21.69660 24626 ft 427 kts 85°
2026-04-25 20:31 60.19155 21.75605 24624 ft 426 kts 85°
2026-04-25 20:31 60.19241 21.81573 24625 ft 426 kts 85°
2026-04-25 20:32 60.19328 21.87534 24622 ft 427 kts 85°
2026-04-25 20:32 60.19415 21.93483 24614 ft 426 kts 86°
2026-04-25 20:32 60.19500 21.99357 24612 ft 426 kts 86°
2026-04-25 20:32 60.19583 22.05311 24608 ft 426 kts 86°
2026-04-25 20:33 60.19663 22.11264 24602 ft 426 kts 86°
2026-04-25 20:33 60.19740 22.17208 24599 ft 425 kts 86°
2026-04-25 20:33 60.19814 22.23156 24597 ft 426 kts 86°
2026-04-25 20:33 60.19863 22.27101 24596 ft 426 kts 86°
2026-04-25 20:34 60.19959 22.35060 24593 ft 426 kts 86°
2026-04-25 20:34 60.20027 22.41027 24436 ft 427 kts 86°
2026-04-25 20:34 60.20091 22.46910 24008 ft 427 kts 86°
2026-04-25 20:34 60.20152 22.52848 23464 ft 423 kts 86°
2026-04-25 20:35 60.20210 22.58726 22893 ft 418 kts 86°
2026-04-25 20:35 60.20265 22.64527 22246 ft 413 kts 86°
2026-04-25 20:35 60.20315 22.70261 21633 ft 407 kts 86°
2026-04-25 20:35 60.20362 22.75910 21033 ft 402 kts 86°
2026-04-25 20:36 60.20407 22.81497 20449 ft 397 kts 86°
2026-04-25 20:36 60.20449 22.87003 19890 ft 391 kts 86°
2026-04-25 20:36 60.20415 22.92443 19347 ft 388 kts 92°
2026-04-25 20:36 60.20092 22.97806 18809 ft 386 kts 97°
2026-04-25 20:37 60.19579 23.03016 18287 ft 384 kts 99°
2026-04-25 20:37 60.19020 23.08255 17741 ft 383 kts 99°
2026-04-25 20:37 60.18457 23.13457 17150 ft 379 kts 99°
2026-04-25 20:37 60.18112 23.18635 16549 ft 370 kts 88°
2026-04-25 20:38 60.18105 23.23769 15997 ft 364 kts 84°
2026-04-25 20:38 60.18209 23.28809 15471 ft 359 kts 83°
2026-04-25 20:38 60.18344 23.33790 14969 ft 357 kts 83°
2026-04-25 20:38 60.18474 23.38739 14469 ft 353 kts 83°
2026-04-25 20:39 60.18588 23.43574 13990 ft 348 kts 83°
2026-04-25 20:39 60.18694 23.48402 13517 ft 343 kts 83°
2026-04-25 20:39 60.18792 23.53159 13030 ft 338 kts 83°
2026-04-25 20:39 60.18853 23.56269 12690 ft 335 kts 83°
2026-04-25 20:40 60.18970 23.62454 12025 ft 327 kts 83°
2026-04-25 20:40 60.19037 23.66123 11640 ft 317 kts 83°
2026-04-25 20:40 60.19114 23.70249 11214 ft 307 kts 82°
2026-04-25 20:40 60.19193 23.74466 10782 ft 297 kts 82°
2026-04-25 20:41 60.19270 23.78545 10365 ft 287 kts 82°
2026-04-25 20:41 60.19344 23.82517 9978 ft 284 kts 82°
2026-04-25 20:41 60.19419 23.86435 9623 ft 283 kts 82°
2026-04-25 20:41 60.19492 23.90358 9500 ft 281 kts 82°
2026-04-25 20:42 60.19567 23.94305 9495 ft 285 kts 82°
2026-04-25 20:42 60.19641 23.98272 9488 ft 282 kts 82°
2026-04-25 20:42 60.19715 24.02199 9484 ft 283 kts 82°
2026-04-25 20:42 60.19721 24.06172 9355 ft 288 kts 90°
2026-04-25 20:43 60.19417 24.10185 8952 ft 290 kts 94°
2026-04-25 20:43 60.19071 24.14163 8531 ft 287 kts 94°
2026-04-25 20:43 60.18723 24.18089 8120 ft 284 kts 94°
2026-04-25 20:43 60.18379 24.21922 7715 ft 281 kts 94°
2026-04-25 20:44 60.18032 24.25737 7477 ft 276 kts 94°
2026-04-25 20:44 60.17679 24.29601 7123 ft 283 kts 94°
2026-04-25 20:44 60.17326 24.33468 6727 ft 281 kts 94°
2026-04-25 20:44 60.16970 24.37279 6476 ft 272 kts 94°
2026-04-25 20:45 60.16618 24.40957 6763 ft 274 kts 94°
2026-04-25 20:45 60.16264 24.44741 7172 ft 276 kts 94°
2026-04-25 20:45 60.15917 24.48553 7331 ft 279 kts 94°
2026-04-25 20:45 60.15560 24.52380 7130 ft 280 kts 98°
2026-04-25 20:46 60.14855 24.56082 6651 ft 288 kts 110°
2026-04-25 20:46 60.14001 24.59675 6141 ft 290 kts 110°
2026-04-25 20:46 60.13127 24.63325 5620 ft 291 kts 110°
2026-04-25 20:46 60.12244 24.66979 5089 ft 292 kts 110°
2026-04-25 20:47 60.11349 24.70613 4576 ft 287 kts 110°
2026-04-25 20:47 60.10464 24.74093 4223 ft 275 kts 110°
2026-04-25 20:47 60.09587 24.77442 3811 ft 270 kts 110°
2026-04-25 20:47 60.08695 24.80798 3415 ft 275 kts 110°
2026-04-25 20:48 60.07788 24.84168 3078 ft 273 kts 110°
2026-04-25 20:48 60.06882 24.87483 2986 ft 274 kts 110°
2026-04-25 20:48 60.05967 24.90835 2997 ft 274 kts 110°
2026-04-25 20:48 60.05070 24.94132 2992 ft 273 kts 110°
2026-04-25 20:49 60.04162 24.97472 2993 ft 273 kts 110°
2026-04-25 20:49 60.03349 25.00855 2987 ft 263 kts 95°
2026-04-25 20:49 60.03270 25.04357 2946 ft 248 kts 71°
2026-04-25 20:49 60.03567 25.07750 2633 ft 247 kts 70°
2026-04-25 20:50 60.03859 25.11119 2329 ft 243 kts 70°
2026-04-25 20:50 60.04150 25.14476 2282 ft 248 kts 70°
2026-04-25 20:50 60.04530 25.17789 2278 ft 236 kts 56°
2026-04-25 20:50 60.05508 25.20217 2283 ft 221 kts 27°
2026-04-25 20:51 60.06891 25.21250 2282 ft 215 kts 10°
2026-04-25 20:51 60.08363 25.21946 2278 ft 214 kts 10°
2026-04-25 20:51 60.09804 25.22353 2282 ft 211 kts 353°
2026-04-25 20:51 60.11187 25.21344 2278 ft 216 kts 331°
2026-04-25 20:52 60.12396 25.19524 2284 ft 217 kts 327°
2026-04-25 20:52 60.13202 25.18354 2290 ft 215 kts 332°
2026-04-25 20:52 60.14773 25.16422 2286 ft 215 kts 334°
2026-04-25 20:52 60.16063 25.14909 2286 ft 215 kts 334°
2026-04-25 20:53 60.17352 25.13407 2287 ft 214 kts 334°
2026-04-25 20:53 60.18639 25.11897 2290 ft 214 kts 334°
2026-04-25 20:53 60.19914 25.10389 2285 ft 210 kts 334°
2026-04-25 20:53 60.21166 25.08901 2290 ft 207 kts 334°
2026-04-25 20:54 60.22244 25.07600 2281 ft 179 kts 334°
2026-04-25 20:54 60.23218 25.06415 2275 ft 151 kts 335°
2026-04-25 20:54 60.24056 25.05428 2105 ft 136 kts 337°
2026-04-25 20:54 60.24835 25.04658 1979 ft 114 kts 341°
2026-04-25 20:55 60.25509 25.04060 1750 ft 101 kts 341°
2026-04-25 20:55 60.26164 25.03494 1454 ft 105 kts 339°
2026-04-25 20:55 60.26732 25.02880 1265 ft 104 kts 335°
2026-04-25 20:55 60.27301 25.02265 1076 ft 111 kts 336°
2026-04-25 20:56 60.28018 25.01604 962 ft 113 kts 335°
2026-04-25 20:56 60.28725 25.00850 793 ft 118 kts 332°
2026-04-25 20:56 60.29473 25.00073 527 ft 123 kts 333°
2026-04-25 20:56 60.30233 24.99310 312 ft 120 kts 331°
2026-04-25 20:57 60.30958 24.98559 166 ft 112 kts 333°
2026-04-25 20:57 60.31462 24.98053 159 ft 52 kts 333°
2026-04-25 20:57 60.31623 24.97891 159 ft 18 kts 333°
2026-04-25 20:57 60.31666 24.97845 159 ft 0 kts 332°
2026-04-25 20:58 60.31668 24.97838 159 ft 2 kts 317°
2026-04-25 20:58 60.31678 24.97785 160 ft 6 kts 286°
2026-04-25 20:58 60.31677 24.97674 161 ft 9 kts 258°
2026-04-25 20:58 60.31669 24.97527 161 ft 7 kts 300°
2026-04-25 20:59 60.31725 24.97436 161 ft 13 kts 324°
2026-04-25 20:59 60.31813 24.97333 162 ft 13 kts 332°
2026-04-25 20:59 60.31864 24.97281 162 ft 3 kts 332°
2026-04-25 20:59 60.31880 24.97266 162 ft 6 kts 336°
2026-04-25 21:00 60.31925 24.97218 162 ft 7 kts 319°
2026-04-25 21:00 60.31930 24.97185 162 ft 9 kts 285°
2026-04-25 21:00 60.31910 24.97004 163 ft 6 kts 244°
2026-04-25 21:01 60.31907 24.96993 163 ft 0 kts 244°